Regional Weather Roundup
Issued by NWS

Home | Current Version | Previous Version | Graphics & Text | Print | Product List | Glossary On
Versions: 1 2 3 4 5 6 7 8 9 10 11 12 13 14 15 16 17 18 19 20 21 22 23 24 25 26 27 28 29 30 31 32 33 34 35 36 37 38 39 40 41 42 43 44 45 46 47 48 49 50
000
ASUS43 KIND 201909
RWRIN

WEATHER ROUNDUP FOR INDIANA
NATIONAL WEATHER SERVICE INDIANAPOLIS IN
200 PM EST MON FEB 20 2017

NOTE: "FAIR" INDICATES FEW OR NO CLOUDS BELOW 12,000 FEET WITH NO
SIGNIFICANT WEATHER AND/OR OBSTRUCTIONS TO VISIBILITY.

* - STATION DOES NOT REPORT WEATHER SUCH AS PRECIPITATION OR FOG.

+ - STATION NOT QUALITY CONTROLLED BY THE NATIONAL WEATHER SERVICE.
    USE DATA WITH CAUTION...ESPECIALLY DEWPOINT AND RELATIVE
    HUMIDITY OBSERVATIONS.

INZ001>003-010>013-019-020-202000-
NORTHWEST INDIANA

CITY           SKY/WX    TMP DP  RH WIND       PRES   REMARKS
GARY /AIRPORT/ PTSUNNY   66  41  39 SE14G26   30.06F
KNOX *+        SUNNY     64  19  17 SE18      30.10F
LA PORTE +     SUNNY     64  45  49 S13G20    30.10F
MICHIGAN CITY+ MOSUNNY   64  45  48 SE8G17    30.08F
MONTICELLO +   SUNNY     63  45  51 SE8G16    30.09F
RENSSELAER +   SUNNY     66  43  42 SE14      30.09F
VALPARAISO     SUNNY     66  47  50 SE13G26   30.08F

$$

LMZ046-743>745-202000-
SOUTHERN LAKE MICHIGAN

STATION/POSITION TIME  TEMP    WIND        PRES    WAVE
                       AIR SEA DIR/SP/G            HT
                 (UTC) (F)     (DEG/KT/KT) (MB)    (FT)
BURNS HARBOR     1840   65     160/ 11/ 20 1018.6F
MICHIGAN CITY    1840   62     130/ 16/ 19   N/A

$$

INZ004-005-014>016-021>024-202000-
NORTH CENTRAL INDIANA

CITY           SKY/WX    TMP DP  RH WIND       PRES   REMARKS
ELKHART        MOSUNNY   63  43  48 SE14      30.13F
GOSHEN         MOSUNNY   64  41  42 S14       30.14F
LOGANSPORT +   SUNNY     63  45  51 SE12      30.13F
PERU/GRISSOM   SUNNY     65  45  48 S13       30.11F
ROCHESTER +    CLOUDY    64  41  42 SE13      30.13S
SOUTH BEND     CLOUDY    63  44  50 SE16G25   30.12F
WARSAW +       MOSUNNY   63  45  51 SE6       30.14S

$$

INZ006>009-017-018-025>027-202000-
NORTHEAST INDIANA

CITY           SKY/WX    TMP DP  RH WIND       PRES   REMARKS
ANGOLA *+      SUNNY     57  39  51 SE8       30.17S
AUBURN +       PTSUNNY   61  37  41 E8        30.17F
FORT WAYNE     PTSUNNY   63  42  46 SE12      30.16F
HUNTINGTON +   MOSUNNY   64  44  47 SE10G17   30.15S
KENDALLVILLE + CLOUDY    60  39  45 SE12      30.16F

$$

INZ028-029-035-036-043>045-051>053-202000-
WEST CENTRAL INDIANA

CITY           SKY/WX    TMP DP  RH WIND       PRES   REMARKS
GREENCASTLE +  CLOUDY    64  45  48 S12       30.12F
LAFAYETTE      MOSUNNY   64  44  48 S13G22    30.10F
TERRE HAUTE    CLOUDY    66  49  54 SE15      30.09F

$$

INZ030>032-037>040-046>048-054>057-064-065-202000-
CENTRAL INDIANA

CITY           SKY/WX    TMP DP  RH WIND       PRES   REMARKS
COLUMBUS       SUNNY     63  54  72 S6        30.14F
FRANKFORT +    CLOUDY    67  46  46 S10G20    30.13F
GREENWOOD *+   CLOUDY    62  50  64 S8        30.15F
INDIANAPOLIS   CLOUDY    63  47  55 SE12      30.12F
-EAGLE CREEK   SUNNY     63  45  51 S12       30.12F
KOKOMO +       SUNNY     64  45  49 SE17      30.13F
MARION +       SUNNY     63  43  48 SE14      30.14F
MT COMFORT *+  MOSUNNY   63  46  55 SE9       30.14F
SHELBYVILLE    MOSUNNY   64  48  56 SE12      30.13F
ZIONSVILLE +   MOSUNNY   62  45  53 S12       30.13F

$$

INZ033-034-041-042-049-050-058-059-202000-
EAST CENTRAL INDIANA

CITY           SKY/WX    TMP DP  RH WIND       PRES   REMARKS
MUNCIE         SUNNY     63  42  46 SE13      30.14F

$$

INZ060-061-067>069-081>083-085>088-202000-
SOUTHWEST INDIANA

CITY           SKY/WX    TMP DP  RH WIND       PRES   REMARKS
EVANSVILLE     MOSUNNY   70  53  54 SE7       30.10F
HUNTINGBURG *+ SUNNY     70  50  49 SE9       30.10F
WASHINGTON +   SUNNY     69  47  45 SE9       30.10F

$$

INZ062-063-066-070>080-084-089>092-202000-
SOUTH CENTRAL AND SOUTHEAST INDIANA

CITY           SKY/WX    TMP DP  RH WIND       PRES   REMARKS
BEDFORD +      SUNNY    N/A N/A N/A SE7       30.13
BLOOMINGTON    SUNNY     66  46  48 S9        30.12F
MADISON *+     MOSUNNY   64  46  52 S5        30.17F
NORTH VERNON + MOSUNNY   63  50  63 S6        30.16F
SEYMOUR +      SUNNY     66  52  59 SE5       30.14F

$$





USA.gov is the U.S. government's official web portal to all federal, state and local government web resources and services.